EUTE 10A (EUTE W2A)

导读 | 星芒AI

EUTE 10A(EUTE W2A)是欧洲通信卫星组织(Eutelsat)运营的一颗通信卫星,于2003年发射,位于东经10度轨道位置。该卫星主要用于广播、电视传输和宽带通信服务,覆盖欧洲、非洲及部分亚洲地区。EUTE 10A 搭载C波段和Ku波段转发器,支持多种媒体内容的分发。尽管已服役多年,它仍在多个领域发挥重要作用,为用户提供稳定的通信和广播服务。

基本信息
目录编号:
34710
目录名称:
EUTE 10A (EUTE W2A)
国际标识:
2009-016A
轨道中心:
EARTH
卫星名称:
EUTE 10A (EUTE W2A)
卫星全名:
--
卫星状态:
在轨 (已飞行6056 天)
发射日期:
2009-04-03 UTC
国别 :
(EUTE)
星等 :
--
轨道信息
数据来源 国际轨道数据 AOE轨道数据
星历时间 2025-11-01T03:23:28+0800
7小时前
查看轨道信息
2025-10-31T13:00:00+0800
22小时前
查看轨道信息
半长轴 42780.843km 42780.697km
偏心率 0.0012993 0.0013045
轨道倾角 2.438° 2.436°
近地点辐角 123.211° 123.867°
升交点赤经 82.956° 82.962°
平近点角 35.315° 182.862°
近地点 36347.122km 36346.754km
远地点 36458.294km 36458.37km
周期 1467.688分钟 1467.680分钟
每日圈数 0.981135 0.98114
详细信息
使用方式:
暂无
2D轨道图
3D轨道图
轨道高度分析图
轨道倾角分析图
轨道综合分析图
查看轨道综合分析图